Retour au catalogue

STARLINK-35472

ActifCommunicationsVLEO
NORAD 65913·PAYLOAD·🇺🇸 United States

Lancé Oct 8, 2025 depuis Vandenberg Space Force Base

Loading…

Prochains Passages (prochaines 24 heures)

TLE

FraisSource: CelesTrak SupGP

Époque: Sep 14, 2026, 21:10 UTC

1 65913C 25225D   26257.88243056  .00009079  00000+0  26821-3 0  2571
2 65913  53.1597   4.0496 0001281  72.0917 321.0944 15.34389503    12

Suivez STARLINK-35472 en temps réel avec AllMySat

Download on the App Store